Location: Castiglione Fibocchi
(43.5333°N, 11.7667°E)
Time: 13:59:18
(UTC+00:00)

NOSS 3-1 (A) - Pass Details

Date: 15 August 2020
Orbit: 745 x 1467 km, 63.4° (Epoch: 21 September)

Event Time Altitude Azimuth Distance (km) Brightness Sun altitude
Exits shadow 00:48:39 76° 86° (E) 890 3.2 -28.8°
Drops below altitude 10° 00:54:35 10° 39° (NE) 2,718 6.8 -28.4°
Sets 00:57:23 0° 38° (NE) 3,782 7.8 -28.1°
